[[{"header":{"parameterUnit":"m.s-1","parameterCategory":1,"la1":30.2991,"la2":30.254,"lo1":-89.0895,"lo2":-89.0444,"dy":0.0017,"dx":0.0017,"nx":28,"ny":28,"refTime":"2025-01-22T09:00:00:Z","depth":0,"parameterNumber":2,"parameterNumberName":"U-component_of_WINDS"},"data":[0,0,0,0,0,0,0,0,0,0,0,0,0,0,0,0,0,0,0,0,0,0,0,0,0,0,0,0,0,0,0,0,0,0,0,0,0,0,0,0,0,0,0,0,0,0,0,0,0,0,0,0,0,0,0,0,0,0,1.1134,1.1133,0,1.1086,1.1085,1.1085,1.1091,1.1092,1.1092,1.1093,1.104,1.1038,1.1036,0,0,0,0,0,0,0,0,0,0,0,0,0,1.1227,1.1225,1.1134,1.1133,1.1133,1.1086,1.1085,1.1085,1.1091,1.1092,1.1093,1.1094,1.1041,1.1038,1.1036,0,0,0,0,0,0,0,0,0,0,0,0,0,1.1183,1.1225,1.1134,1.113,1.1129,1.1086,1.1085,1.1084,1.109,1.1092,1.1093,1.1094,1.1042,1.1038,1.1035,1.0991,0,0,1.1025,1.1024,0,0,0,0,0,0,0,0,1.1186,1.118,1.1131,1.113,1.1129,1.1096,1.1099,1.1053,1.109,1.1105,1.1093,1.1095,1.1057,1.1053,1.1041,1.0989,1.0987,1.1025,1.1023,1.1022,1.1021,0,0,0,0,0,0,0,1.1189,1.1182,1.1115,1.1131,1.1129,1.113,1.1125,1.109,1.1075,1.1104,1.1104,1.1099,1.1057,1.1044,1.104,1.0986,1.1025,1.1022,1.102,1.1019,1.0894,1.0892,0,0,0,0,0,0,1.1193,1.1185,1.1116,1.1113,1.1161,1.1127,1.1122,1.1105,1.1075,1.1072,1.1098,1.1099,1.1049,1.1044,1.1038,1.0983,1.1022,1.1019,1.1017,1.0895,1.0893,1.0892,0,0,0,0,0,0,1.1195,1.1187,1.1118,1.1149,1.114,1.1124,1.1106,1.1104,1.1091,1.1071,1.1068,1.1088,1.105,1.1043,1.1003,1.0981,1.1017,1.1014,1.0897,1.0895,1.0893,1.0874,0,0,0,0,0,0,1.1198,1.1188,1.1172,1.1149,1.1139,1.1085,1.1104,1.1102,1.1086,1.1087,1.106,1.1057,1.105,1.1008,1.1,1.0977,1.1012,1.0899,1.0896,1.0893,1.0876,1.0871,1.0867,0,0,0,0,0,1.1201,1.1168,1.1171,1.1163,1.1118,1.1084,1.1078,1.1071,1.1084,1.1067,1.1054,1.1058,1.0986,1.1004,1.0995,1.0971,1.09,1.0897,1.0894,1.0878,1.0872,1.0867,0,0,0,0,0,0,1.1188,1.1165,1.1168,1.1126,1.1107,1.1085,1.1063,1.1066,1.1041,1.1043,1.1036,1.103,1.0989,1.0977,1.0997,1.0926,1.0944,1.0939,1.0936,1.093,1.0925,1.0928,1.1009,0,0,0,0,0,1.118,1.1155,1.1136,1.1101,1.1091,1.1079,1.1064,1.1061,1.104,1.1031,1.1015,1.0994,1.0966,1.0948,1.0921,1.0876,1.0868,1.0855,1.085,1.0847,1.0841,1.0814,1.0807,1.0882,1.0882,1.0882,0,0,1.1163,1.1148,1.1132,1.1098,1.1082,1.1055,1.1072,1.1042,1.1021,1.1026,1.0987,1.0975,1.0951,1.0907,1.0887,1.0895,1.082,1.0843,1.084,1.0837,1.081,1.0803,1.0797,1.088,1.088,1.088,0,0,1.1119,1.1106,1.1074,1.1059,1.1036,1.1028,1.102,1.0998,1.099,1.0952,1.0954,1.0929,1.0882,1.0864,1.0848,1.0798,1.0799,1.079,1.0764,1.0738,1.0732,1.0727,1.0706,1.0699,1.0785,1.0785,1.0785,0,1.11,1.106,1.1057,1.1027,1.1011,1.1016,1.0983,1.0968,1.0937,1.0925,1.0936,1.0876,1.086,1.0812,1.0799,1.0788,1.0777,1.0791,1.0734,1.0728,1.0723,1.0703,1.0696,1.0784,1.0784,1.0784,1.0784,0,1.1038,1.101,1.0987,1.0958,1.094,1.0908,1.0899,1.0881,1.088,1.0871,1.0831,1.0812,1.0781,1.077,1.0769,1.0721,1.0727,1.0736,1.0753,1.0715,1.0696,1.0689,1.0782,1.0782,1.0783,1.0783,0,0,1.098,1.0951,1.0942,1.0929,1.0904,1.0882,1.0851,1.0822,1.0805,1.0784,1.0756,1.0717,1.0725,1.0707,1.0704,1.0682,1.064,1.0693,1.0692,1.0681,1.0583,1.0574,1.0566,1.0642,1.0641,1.064,1.0584,0,1.0931,1.0876,1.0873,1.0823,1.0796,1.0801,1.0773,1.0754,1.0745,1.072,1.071,1.0681,1.0695,1.0684,1.0663,1.0649,1.0619,1.0654,1.0613,1.0612,1.0616,1.0556,1.0547,1.0495,1.0577,1.0576,1.0575,0,1.0865,1.0843,1.079,1.0769,1.0758,1.0733,1.0706,1.0683,1.0661,1.0656,1.0637,1.0637,1.0603,1.0624,1.0576,1.06,1.0584,1.0575,1.0573,1.0566,1.0589,1.0545,1.0479,1.047,1.0564,1.0565,1.0566,0,1.0825,1.0782,1.0745,1.0734,1.0708,1.0691,1.0679,1.0659,1.0642,1.0618,1.0606,1.0579,1.0563,1.0541,1.0533,1.0549,1.0485,1.0505,1.0477,1.0477,1.046,1.0461,1.0388,1.0455,1.0455,1.0456,1.0456,0,1.0769,1.0735,1.0726,1.0703,1.0666,1.0662,1.0625,1.0614,1.0597,1.057,1.0574,1.0548,1.0541,1.0514,1.0508,1.0468,1.0462,1.0455,1.0453,1.0452,1.0453,1.0439,1.0441,1.0454,1.0454,1.0454,1.0455,0,1.0716,1.0709,1.0668,1.0648,1.0643,1.0616,1.0598,1.0575,1.0567,1.0533,1.0525,1.0512,1.048,1.0472,1.0434,1.0429,1.0381,1.0385,1.0389,1.0387,1.0358,1.036,1.0271,1.0258,1.0338,1.0337,1.0336,0,1.0679,1.0653,1.0631,1.0614,1.0602,1.0575,1.0557,1.0553,1.0535,1.0509,1.0488,1.0458,1.0432,1.0382,1.0368,1.0339,1.0339,1.031,1.0334,1.0334,1.0335,1.0335,1.0331,1.0304,1.0303,1.0302,1.0302,0,1.0612,1.061,1.0585,1.0559,1.0538,1.0517,1.0497,1.0483,1.0476,1.0455,1.0423,1.0404,1.0366,1.0334,1.0305,1.0292,1.0294,1.0295,1.0286,1.0284,1.0286,1.0281,1.0372,1.0296,1.0297,1.0297,1.0297,1.0298,1.0564,1.0541,1.0521,1.0493,1.0478,1.0459,1.0436,1.0426,1.04,1.0369,1.0368,1.0333,1.0312,1.0273,1.0258,1.023,1.0238,1.0226,1.0223,1.0219,1.0215,1.0294,1.0225,1.0225,1.0225,1.0225,1.0226,0,1.0495,1.0483,1.0457,1.0429,1.0407,1.0415,1.0393,1.0373,1.0342,1.0323,1.0298,1.0261,1.0231,1.0216,1.0186,1.0166,1.0166,1.0157,1.0157,1.0153,1.0211,1.022,1.0157,1.0157,1.0157,1.0157,1.0157,1.0157,1.0456,1.0417,1.0412,1.0365,1.0354,1.032,1.0306,1.0288,1.0273,1.0232,1.0207,1.0198,1.0179,1.0148,1.012,1.0116,1.0103,1.0093,1.009,1.0143,1.015,1.0156,1.0164,1.0091,1.0091,1.0034,1.0033,1.0033]},{"header":{"parameterUnit":"m.s-1","parameterCategory":1,"la1":30.2991,"la2":30.254,"lo1":-89.0895,"lo2":-89.0444,"dy":0.0017,"dx":0.0017,"nx":28,"ny":28,"refTime":"2025-01-22T09:00:00:Z","depth":0,"parameterNumber":3,"parameterNumberName":"V-component_of_WINDS"},"data":[0,0,0,0,0,0,0,0,0,0,0,0,0,0,0,0,0,0,0,0,0,0,0,0,0,0,0,0,0,0,0,0,0,0,0,0,0,0,0,0,0,0,0,0,0,0,0,0,0,0,0,0,0,0,0,0,0,0,-5.1618,-5.162,0,-5.1803,-5.1806,-5.1808,-5.1738,-5.1734,-5.1729,-5.1725,-5.1912,-5.1921,-5.193,0,0,0,0,0,0,0,0,0,0,0,0,0,-5.1198,-5.1206,-5.1617,-5.162,-5.1622,-5.1803,-5.1806,-5.1808,-5.1739,-5.1734,-5.1728,-5.1724,-5.1909,-5.192,-5.1931,0,0,0,0,0,0,0,0,0,0,0,0,0,-5.1382,-5.1209,-5.1617,-5.1609,-5.161,-5.1803,-5.1806,-5.1809,-5.174,-5.1733,-5.1727,-5.1721,-5.1906,-5.1919,-5.1932,-5.2142,0,0,-5.1973,-5.1979,0,0,0,0,0,0,0,0,-5.1371,-5.1397,-5.1608,-5.161,-5.1612,-5.1741,-5.1726,-5.192,-5.1741,-5.1691,-5.1725,-5.1718,-5.186,-5.1877,-5.1926,-5.215,-5.2158,-5.1974,-5.1982,-5.1988,-5.1992,0,0,0,0,0,0,0,-5.1359,-5.1389,-5.1691,-5.1611,-5.1614,-5.1595,-5.1614,-5.1763,-5.1809,-5.1694,-5.169,-5.1713,-5.186,-5.1913,-5.1929,-5.2161,-5.1974,-5.1986,-5.1994,-5.1999,-5.2567,-5.2574,0,0,0,0,0,0,-5.1346,-5.1379,-5.1685,-5.1696,-5.1474,-5.1608,-5.1629,-5.1706,-5.1807,-5.1816,-5.1718,-5.1709,-5.1893,-5.1914,-5.1936,-5.2189,-5.1988,-5.2,-5.2008,-5.256,-5.2569,-5.2576,0,0,0,0,0,0,-5.1337,-5.1374,-5.1677,-5.1536,-5.1574,-5.1622,-5.1709,-5.1713,-5.1766,-5.1825,-5.1832,-5.1764,-5.1889,-5.1917,-5.2091,-5.2194,-5.2006,-5.2019,-5.2552,-5.2563,-5.2573,-5.2696,0,0,0,0,0,0,-5.1325,-5.1371,-5.1452,-5.1539,-5.1582,-5.1832,-5.1715,-5.1721,-5.179,-5.1779,-5.187,-5.1879,-5.1886,-5.2072,-5.2105,-5.2209,-5.2029,-5.2543,-5.2557,-5.2569,-5.2683,-5.2709,-5.2732,0,0,0,0,0,-5.1311,-5.1479,-5.1457,-5.1494,-5.1684,-5.1838,-5.1862,-5.1868,-5.1798,-5.188,-5.1917,-5.1876,-5.2177,-5.209,-5.2127,-5.2237,-5.2536,-5.2553,-5.2568,-5.2672,-5.2704,-5.2731,0,0,0,0,0,0,-5.1402,-5.149,-5.1467,-5.1668,-5.1746,-5.1826,-5.1929,-5.1902,-5.2,-5.1987,-5.1988,-5.201,-5.219,-5.223,-5.2132,-5.2445,-5.2346,-5.237,-5.2412,-5.2444,-5.2468,-5.2455,-5.204,0,0,0,0,0,-5.1446,-5.1564,-5.1634,-5.1805,-5.1845,-5.1881,-5.1947,-5.1945,-5.2026,-5.2058,-5.2108,-5.2187,-5.2299,-5.2373,-5.248,-5.2687,-5.2706,-5.2781,-5.2806,-5.2825,-5.2847,-5.296,-5.2994,-5.2629,-5.2629,-5.2628,0,0,-5.1537,-5.16,-5.1674,-5.1825,-5.1885,-5.2007,-5.1909,-5.2041,-5.2132,-5.2078,-5.2246,-5.2286,-5.2373,-5.2566,-5.2653,-5.2605,-5.2951,-5.2846,-5.2861,-5.2872,-5.298,-5.3014,-5.3045,-5.2639,-5.2638,-5.2636,0,0,-5.1766,-5.1825,-5.1975,-5.2037,-5.213,-5.2152,-5.2188,-5.2272,-5.2297,-5.2466,-5.2428,-5.2534,-5.2728,-5.2792,-5.285,-5.3103,-5.3068,-5.3137,-5.3266,-5.3376,-5.3405,-5.3431,-5.3522,-5.3554,-5.3157,-5.3158,-5.3158,0,-5.1868,-5.2051,-5.2054,-5.2191,-5.2258,-5.2216,-5.2367,-5.2426,-5.2549,-5.2596,-5.254,-5.2783,-5.2838,-5.3045,-5.3107,-5.3155,-5.3196,-5.3128,-5.3401,-5.3427,-5.3451,-5.3537,-5.3571,-5.3166,-5.3165,-5.3164,-5.3163,0,-5.2172,-5.2299,-5.2408,-5.2529,-5.2608,-5.2751,-5.2775,-5.2855,-5.2845,-5.2873,-5.3045,-5.3111,-5.323,-5.3279,-5.327,-5.3485,-5.3452,-5.3399,-5.33,-5.3493,-5.3575,-5.3608,-5.3177,-5.3174,-5.3172,-5.317,0,0,-5.2465,-5.2586,-5.2626,-5.2681,-5.2779,-5.2878,-5.3018,-5.3136,-5.3204,-5.3289,-5.3407,-5.3571,-5.3523,-5.3589,-5.3587,-5.3683,-5.388,-5.3618,-5.362,-5.3666,-5.4121,-5.4162,-5.4201,-5.3857,-5.3864,-5.3869,-5.4114,0,-5.2703,-5.2951,-5.2958,-5.3185,-5.3303,-5.3264,-5.3385,-5.3459,-5.3488,-5.3591,-5.3622,-5.374,-5.3666,-5.3706,-5.38,-5.3837,-5.3972,-5.3819,-5.3967,-5.3972,-5.3948,-5.4243,-5.4287,-5.4515,-5.4146,-5.4152,-5.4156,0,-5.3014,-5.3111,-5.335,-5.3433,-5.3482,-5.3592,-5.3701,-5.38,-5.3881,-5.3896,-5.397,-5.3953,-5.4095,-5.3991,-5.4186,-5.4082,-5.4142,-5.417,-5.4178,-5.4194,-5.4077,-5.4268,-5.4588,-5.4623,-5.4206,-5.4202,-5.4198,0,-5.3206,-5.3396,-5.3563,-5.3611,-5.3711,-5.3789,-5.3834,-5.3909,-5.398,-5.4074,-5.412,-5.4228,-5.4288,-5.4372,-5.4385,-5.4308,-5.4582,-5.4478,-5.4598,-5.4598,-5.4659,-5.4655,-5.4996,-5.4696,-5.4695,-5.4694,-5.4694,0,-5.3472,-5.362,-5.3651,-5.3755,-5.3919,-5.3924,-5.4086,-5.4125,-5.4192,-5.4301,-5.4273,-5.4376,-5.4386,-5.4492,-5.4502,-5.4663,-5.469,-5.4705,-5.4707,-5.4709,-5.4707,-5.475,-5.4735,-5.4703,-5.4701,-5.47,-5.4698,0,-5.3715,-5.3742,-5.3922,-5.4002,-5.4025,-5.4143,-5.421,-5.4309,-5.4334,-5.4473,-5.4506,-5.4546,-5.4669,-5.469,-5.4834,-5.4841,-5.5034,-5.5018,-5.5007,-5.5006,-5.5125,-5.5114,-5.5506,-5.5557,-5.5222,-5.5225,-5.5228,0,-5.3884,-5.3997,-5.4089,-5.4161,-5.4211,-5.4326,-5.4398,-5.4407,-5.4483,-5.4584,-5.4671,-5.4791,-5.4887,-5.5085,-5.5127,-5.5237,-5.5224,-5.5354,-5.5241,-5.524,-5.5228,-5.5222,-5.5233,-5.5376,-5.538,-5.5383,-5.5385,0,-5.4182,-5.4189,-5.4295,-5.4406,-5.4493,-5.458,-5.4662,-5.4722,-5.4741,-5.4828,-5.4954,-5.5029,-5.5177,-5.5297,-5.5406,-5.545,-5.5422,-5.542,-5.5454,-5.5459,-5.5448,-5.5457,-5.5068,-5.5412,-5.5409,-5.5407,-5.5406,-5.5405,-5.4394,-5.4493,-5.4573,-5.4692,-5.4755,-5.4833,-5.4929,-5.4967,-5.5073,-5.5195,-5.5193,-5.5332,-5.5409,-5.5553,-5.5605,-5.5712,-5.5671,-5.5719,-5.5732,-5.5744,-5.5757,-5.543,-5.5732,-5.5731,-5.5731,-5.573,-5.5729,0,-5.4691,-5.4741,-5.485,-5.4967,-5.506,-5.5025,-5.5114,-5.5194,-5.5317,-5.5392,-5.5488,-5.5633,-5.5749,-5.5799,-5.5913,-5.5989,-5.5979,-5.6019,-5.6014,-5.6025,-5.5787,-5.5747,-5.6025,-5.6025,-5.6025,-5.6025,-5.6025,-5.6025,-5.4857,-5.5023,-5.504,-5.5237,-5.5285,-5.5421,-5.5475,-5.5547,-5.5607,-5.5771,-5.5867,-5.5899,-5.5965,-5.6083,-5.6187,-5.6199,-5.6242,-5.6289,-5.6295,-5.6072,-5.6042,-5.6013,-5.5976,-5.6298,-5.6298,-5.6524,-5.6526,-5.6528]}]]